CZ-6A DEB

Satellite information

Favourite Embed

Satellite Type and Status

DEBRISIN ORBIT

Key statistics

Satellite CZ-6A DEB at a glance.

Uptime

1076

Days in orbit

Revolutions

≈ 14.1

Per day

Orbit

SSO

Sun Synchronous Orbit

Inclination

98.8

Latest

Satellite identification and parameters

Extended collection of information and parameters for CZ-6A DEB.

Object identification

Identified? True

Debris? True

Object name: CZ-6A DEB

International designator: 2022-151NS

Object number (NORAD): 54616

Object ID (CCSDS): 54616

Country: PEOPLES REPUBLIC OF CHINA (PRC)

Current information (Y/N): Y

RCS size: SMALL

Orbital parameters

Period: 101.929 minutes

Inclination: 98.8195 deg

SMA: 7228.118 km

Apoapsis: 891.029 km

Periapsis: 808.937 km

RAAN: 291.156 deg

Eccentricy: 0.0056787

Argument of periapsis: 313.4331 deg

Mean anomaly: 46.2123 deg

Mean motion: 14.12748703 rev/day

Mean motion (dot): 0.00002762 rev/day2

B* drag term: 0.0014884734 1/REarth

Two-line elements (TLE)

Creation date: Oct. 21, 2025, 3:26 a.m.

Reference frame: TEME

Reference center: EARTH

Epoch: Oct. 20, 2025, 9:10 p.m. UTC

TLE line 0: 0 CZ-6A DEB

TLE line 1: 1 54616U 22151NS 25293.88224290 .00002762 00000-0 14885-2 0 9994

TLE line 2: 2 54616 98.8195 291.1560 0056787 313.4331 46.2123 14.12748703150044

Live tracking on map

Real-time ground track for satellite CZ-6A DEB.

In-orbit conjunctions

A list of the most updated potential collisions computed for object CZ-6A DEB.

Target Orbit TCA Probability of collision Miss distance Type
CZ-6A DEB LEO 2025-05-22 22:16:14 0.0001969904 132.0 (m) DEBRIS
SL-16 R/B LEO 2025-02-14 16:08:16 0.0001205565 664.0 (m) ROCKET BODY
FENGYUN 1C DEB SSO 2024-08-27 02:09:57 0.0002096449 169.0 (m) DEBRIS

Associated space launch

Chinese satellite reported for atmospheric/ocean/environmental/spatial parameter research purposes, details TBD.

CZ-6A DEB was lifted into orbit during the mission ‘Long March 6A | Yunhai 3’, on board a Long March 6A space rocket.

The launch took place on Nov. 11, 2022, 10:52 p.m. from Launch Complex 9A.

For more information about the launch, click the button.

Launch to space Long March 6A | Yunhai 3
Long March 6A | Yunhai 3

Agency: N/A

Status: Launch Successful

Launch date: Nov. 11, 2022, 10:52 p.m. UTC

Rocket: Long March 6A

Launch pad: Launch Complex 9A

Location: Taiyuan Satellite Launch Center, People's Republic of China

...

Latest news about this satellite

There are no fresh news available about this satellite. Check back as we update our databases every day.


Newsletter sign-up

Weekly statistics, charts and insights to help you stay on top of the space industry.